Precipitable_Water
0.63 0.66 0.67 0.69 0.73 0.72 0.71 0.68 0.69 0.70 0.71 0.71 0.70 0.70 0.70 0.67 0.67 0.64 0.64 0.63 0.62 0.61 0.62 0.63 0.64 0.66 0.69
0.59 0.61 0.64 0.68 0.68 0.64 0.65 0.67 0.68 0.70 0.71 0.71 0.70 0.69 0.69 0.69 0.66 0.64 0.63 0.63 0.62 0.61 0.62 0.63 0.63 0.64 0.67
0.54 0.60 0.62 0.63 0.62 0.64 0.65 0.64 0.67 0.70 0.70 0.70 0.70 0.68 0.67 0.64 0.64 0.63 0.61 0.61 0.62 0.61 0.62 0.62 0.62 0.63 0.64
0.54 0.56 0.58 0.61 0.62 0.58 0.57 0.61 0.61 0.66 0.67 0.67 0.67 0.66 0.64 0.63 0.62 0.61 0.60 0.60 0.60 0.61 0.59 0.58 0.57 0.56 0.56
0.53 0.55 0.54 0.55 0.54 0.57 0.55 0.57 0.60 0.62 0.61 0.62 0.61 0.60 0.60 0.58 0.57 0.58 0.57 0.57 0.54 0.51 0.49 0.47 0.46 0.45 0.45
0.53 0.52 0.53 0.55 0.57 0.56 0.55 0.53 0.49 0.62 0.58 0.54 0.55 0.51 0.53 0.53 0.54 0.53 0.51 0.48 0.47 0.45 0.43 0.40 0.38 0.37 0.36
0.52 0.51 0.49 0.52 0.51 0.47 0.47 0.47 0.45 0.49 0.50 0.43 0.46 0.43 0.45 0.48 0.48 0.47 0.44 0.41 0.39 0.36 0.34 0.32 0.30 0.28 0.28
0.43 0.44 0.44 0.45 0.45 0.43 0.40 0.40 0.40 0.38 0.42 0.36 0.38 0.36 0.38 0.38 0.39 0.39 0.36 0.34 0.32 0.30 0.29 0.27 0.24 0.22 0.21
0.44 0.44 0.44 0.43 0.42 0.41 0.37 0.36 0.35 0.35 0.35 0.32 0.32 0.29 0.31 0.30 0.32 0.32 0.31 0.31 0.30 0.26 0.24 0.23 0.22 0.21 0.18
0.42 0.43 0.42 0.41 0.40 0.39 0.39 0.35 0.34 0.32 0.34 0.29 0.30 0.28 0.23 0.30 0.30 0.29 0.27 0.26 0.23 0.22 0.22 0.22 0.23 0.22 0.20
0.41 0.40 0.39 0.38 0.38 0.38 0.38 0.35 0.34 0.31 0.34 0.30 0.29 0.27 0.26 0.25 0.26 0.26 0.25 0.23 0.22 0.22 0.22 0.22 0.22 0.23 0.20
0.40 0.37 0.35 0.34 0.36 0.38 0.38 0.35 0.33 0.30 0.30 0.28 0.23 0.21 0.17 0.15 0.16 0.20 0.19 0.21 0.21 0.20 0.21 0.21 0.21 0.22 0.22
0.38 0.35 0.35 0.36 0.38 0.37 0.37 0.34 0.31 0.26 0.21 0.19 0.16 0.15 0.15 0.13 0.13 0.14 0.15 0.16 0.19 0.17 0.18 0.17 0.18 0.19 0.17
0.36 0.35 0.36 0.37 0.35 0.34 0.30 0.24 0.18 0.17 0.20 0.20 0.18 0.17 0.14 0.15 0.16 0.14 0.17 0.14 0.17 0.18 0.18 0.18 0.18 0.19 0.19
0.35 0.34 0.36 0.35 0.33 0.30 0.20 0.17 0.15 0.15 0.15 0.16 0.17 0.18 0.19 0.17 0.14 0.16 0.16 0.16 0.18 0.18 0.18 0.16 0.17 0.18 0.19
0.35 0.36 0.35 0.33 0.29 0.20 0.17 0.16 0.14 0.15 0.15 0.16 0.16 0.15 0.15 0.17 0.21 0.17 0.17 0.17 0.18 0.19 0.19 0.16 0.16 0.18 0.20
0.35 0.35 0.34 0.30 0.21 0.17 0.16 0.15 0.14 0.15 0.16 0.17 0.16 0.15 0.12 0.11 0.16 0.23 0.18 0.18 0.18 0.18 0.18 0.18 0.17 0.18 0.20
Wind_Speed
30 30 30 29 28 28 28 28 28 27 26 26 26 27 27 28 29 30 31 32 32 32 32 32 31 29 28
27 26 26 27 27 27 27 26 26 25 25 24 25 26 26 27 28 29 30 30 30 29 27 26 25 25 26
24 24 24 24 24 24 24 24 24 24 25 25 25 25 25 26 27 27 27 26 25 24 23 22 20 20 20
22 22 21 21 21 22 22 21 22 22 22 23 23 23 23 24 24 23 22 20 19 18 17 18 18 19 19
19 18 18 19 19 19 19 19 18 19 20 20 20 20 20 20 19 17 16 15 15 16 16 17 18 19 20
16 16 16 15 16 16 16 17 17 17 17 17 17 17 16 15 15 15 15 15 16 17 18 19 20 21 22
12 12 12 13 13 13 13 14 15 15 15 15 16 16 17 17 17 17 18 18 19 20 21 22 23 23 24
10 10 11 12 12 12 13 13 14 14 16 16 17 18 18 19 19 19 20 21 22 22 23 24 24 24 23
9 10 10 11 11 12 13 14 15 16 17 17 18 19 19 20 20 21 21 22 23 24 24 24 23 23 22
11 10 10 10 11 12 14 14 15 16 17 17 18 19 18 19 19 20 22 22 23 23 23 23 23 22 22
10 10 11 12 12 13 14 15 15 16 17 17 17 18 18 19 20 21 22 23 23 24 24 24 24 24 24
11 11 12 13 14 14 15 15 15 15 17 17 17 18 19 20 21 22 24 23 24 25 25 26 26 25 25
11 12 13 14 14 15 15 15 15 16 17 18 19 19 19 20 21 22 23 24 23 26 27 27 27 26 26
12 12 13 14 14 14 15 15 16 17 17 17 18 18 18 18 19 20 20 20 22 23 25 25 25 26 26
12 13 13 14 14 14 14 16 16 16 16 17 18 18 18 18 18 19 20 21 22 22 22 22 21 22 23
12 13 13 13 14 14 15 16 15 15 16 16 17 16 17 17 17 19 19 20 21 21 21 21 22 21 21
13 13 13 14 14 15 16 15 15 15 15 15 16 17 17 17 18 18 20 22 22 23 22 22 23 24 23
Wind_Direction
275 277 277 276 276 278 279 279 280 280 278 278 278 278 279 280 279 281 282 282 281 282 280 278 278 277 276
276 277 276 277 277 277 279 279 278 280 279 279 281 281 282 282 283 283 283 282 282 281 279 278 278 275 273
276 277 277 277 276 277 279 280 279 276 279 281 282 283 284 285 285 285 285 284 281 279 275 276 276 276 276
277 276 277 278 278 277 277 279 279 280 280 281 282 283 286 286 287 286 285 283 280 278 275 275 277 277 278
277 277 278 280 281 281 279 279 281 281 282 284 284 285 288 288 287 285 283 282 281 280 279 280 280 280 280
278 278 280 281 283 283 280 281 281 284 284 285 285 286 287 288 286 284 283 283 282 283 284 284 284 283 282
278 281 281 284 283 284 285 285 285 286 285 285 285 285 285 285 285 283 283 283 284 285 286 286 287 286 283
281 283 284 285 285 285 286 286 288 292 290 285 287 285 284 284 283 283 283 284 286 287 287 288 288 286 284
284 286 291 293 290 286 290 289 289 290 294 289 288 288 285 284 284 285 286 287 288 288 289 288 287 286 284
283 286 289 292 295 296 294 293 292 292 295 294 292 292 289 287 287 287 289 289 290 290 290 289 287 285 284
277 283 287 292 296 299 300 298 295 293 297 296 295 294 292 291 291 290 292 291 290 290 290 289 287 284 282
277 284 289 294 297 299 300 300 300 298 299 299 296 296 295 294 293 293 294 292 291 291 290 289 286 283 281
279 285 291 295 299 299 299 299 300 301 303 303 301 300 298 297 298 299 299 297 293 294 292 290 286 283 281
281 286 292 296 298 299 300 300 301 304 303 307 307 305 304 303 304 304 305 306 306 303 299 295 288 285 281
282 287 292 295 298 299 302 305 305 304 306 308 311 309 304 305 308 308 307 309 311 311 309 305 300 292 286
282 287 291 293 297 300 304 306 307 308 310 312 315 315 315 312 309 312 313 313 314 313 312 308 304 302 296
281 286 289 294 295 301 306 306 307 309 311 313 316 319 318 316 315 314 314 314 313 311 310 307 303 302 298